[[{"header":{"parameterUnit":"m.s-1","parameterCategory":1,"la1":30.2991,"la2":30.254,"lo1":-89.0895,"lo2":-89.0444,"dy":0.0017,"dx":0.0017,"nx":28,"ny":28,"refTime":"2024-05-08T09:00:00:Z","depth":0,"parameterNumber":2,"parameterNumberName":"U-component_of_WINDS"},"data":[0,0,0,0,0,0,0,0,0,0,0,0,0,0,0,0,0,0,0,0,0,0,0,0,0,0,0,0,0,0,0,0,0,0,0,0,0,0,0,0,0,0,0,0,0,0,0,0,0,0,0,0,0,0,0,0,0,0,-1.3755,-1.3754,0,-1.3742,-1.3742,-1.3741,-1.3724,-1.3724,-1.3724,-1.3724,-1.3711,-1.3711,-1.3711,0,0,0,0,0,0,0,0,0,0,0,0,0,-1.3765,-1.3765,-1.3755,-1.3754,-1.3754,-1.3742,-1.3742,-1.3741,-1.3724,-1.3724,-1.3724,-1.3723,-1.3711,-1.3711,-1.3711,0,0,0,0,0,0,0,0,0,0,0,0,0,-1.3757,-1.3765,-1.3755,-1.3744,-1.3743,-1.3742,-1.3742,-1.3741,-1.3724,-1.3724,-1.3724,-1.3723,-1.3711,-1.3711,-1.3711,-1.3718,0,0,-1.371,-1.371,0,0,0,0,0,0,0,0,-1.3758,-1.3757,-1.3746,-1.3745,-1.3744,-1.3734,-1.374,-1.3734,-1.3725,-1.3732,-1.3724,-1.3723,-1.3719,-1.3718,-1.3717,-1.3718,-1.3717,-1.371,-1.371,-1.371,-1.371,0,0,0,0,0,0,0,-1.3758,-1.3757,-1.375,-1.3746,-1.3745,-1.374,-1.3739,-1.3739,-1.3728,-1.3731,-1.373,-1.3728,-1.3718,-1.3717,-1.3716,-1.3717,-1.371,-1.371,-1.371,-1.371,-1.3723,-1.3724,0,0,0,0,0,0,-1.376,-1.3758,-1.375,-1.3749,-1.375,-1.3741,-1.3739,-1.3738,-1.3728,-1.3726,-1.3729,-1.3728,-1.3717,-1.3716,-1.3716,-1.3723,-1.371,-1.371,-1.371,-1.3723,-1.3723,-1.3724,0,0,0,0,0,0,-1.376,-1.376,-1.375,-1.3753,-1.3752,-1.3741,-1.374,-1.3738,-1.3736,-1.3726,-1.3724,-1.3729,-1.3717,-1.3716,-1.3718,-1.3723,-1.371,-1.371,-1.3722,-1.3723,-1.3723,-1.3739,0,0,0,0,0,0,-1.3761,-1.376,-1.3763,-1.3753,-1.3752,-1.3753,-1.374,-1.3738,-1.3736,-1.3734,-1.3726,-1.3724,-1.3716,-1.3718,-1.3717,-1.3722,-1.371,-1.3722,-1.3723,-1.3723,-1.3738,-1.374,-1.3742,0,0,0,0,0,-1.3761,-1.3768,-1.3763,-1.3762,-1.3755,-1.3753,-1.3752,-1.3743,-1.3737,-1.3739,-1.3733,-1.3725,-1.3722,-1.3718,-1.3718,-1.3722,-1.3721,-1.3722,-1.3723,-1.3737,-1.374,-1.3742,0,0,0,0,0,0,-1.3778,-1.3766,-1.3761,-1.3764,-1.376,-1.375,-1.3753,-1.3746,-1.3743,-1.3741,-1.373,-1.3729,-1.3731,-1.3727,-1.3723,-1.3729,-1.3721,-1.3722,-1.3732,-1.3734,-1.3736,-1.3736,-1.371,0,0,0,0,0,-1.3782,-1.3782,-1.3771,-1.3776,-1.3774,-1.3764,-1.3763,-1.3756,-1.3751,-1.3749,-1.3742,-1.3738,-1.3736,-1.3735,-1.3733,-1.3738,-1.3735,-1.3741,-1.3743,-1.3745,-1.3745,-1.3747,-1.3749,-1.3727,-1.3727,-1.3727,0,0,-1.3791,-1.3784,-1.3784,-1.3779,-1.3774,-1.3774,-1.3762,-1.3762,-1.3762,-1.3749,-1.375,-1.3745,-1.3739,-1.3742,-1.3743,-1.3739,-1.3751,-1.3746,-1.3747,-1.3747,-1.3748,-1.375,-1.3752,-1.3727,-1.3727,-1.3727,0,0,-1.3806,-1.3801,-1.3804,-1.3799,-1.3793,-1.3786,-1.3787,-1.3778,-1.3775,-1.3775,-1.3765,-1.3765,-1.3762,-1.3758,-1.3756,-1.3769,-1.3761,-1.3769,-1.3779,-1.3781,-1.3782,-1.3784,-1.3788,-1.3789,-1.377,-1.377,-1.377,0,-1.3817,-1.3816,-1.3806,-1.3806,-1.3804,-1.3792,-1.3795,-1.3791,-1.3784,-1.3783,-1.3778,-1.3774,-1.3769,-1.3771,-1.3774,-1.3773,-1.3773,-1.3769,-1.3783,-1.3784,-1.3785,-1.3789,-1.3791,-1.3771,-1.3771,-1.377,-1.377,0,-1.3829,-1.3829,-1.3832,-1.3825,-1.3823,-1.3825,-1.3815,-1.3814,-1.3808,-1.3802,-1.3803,-1.3797,-1.3793,-1.3793,-1.3787,-1.3794,-1.3791,-1.3785,-1.3776,-1.3789,-1.3792,-1.3793,-1.3772,-1.3772,-1.3771,-1.3771,0,0,-1.3854,-1.3842,-1.3843,-1.3839,-1.3831,-1.3831,-1.3832,-1.3828,-1.3827,-1.3823,-1.3823,-1.3821,-1.3815,-1.3812,-1.3806,-1.3808,-1.3818,-1.3801,-1.3801,-1.3803,-1.3824,-1.3828,-1.383,-1.3813,-1.3813,-1.3813,-1.3824,0,-1.3866,-1.3867,-1.3858,-1.3861,-1.386,-1.3849,-1.385,-1.3845,-1.384,-1.3838,-1.3832,-1.3831,-1.3823,-1.3821,-1.3823,-1.3816,-1.3821,-1.3815,-1.3812,-1.3812,-1.3813,-1.3832,-1.3836,-1.3846,-1.3825,-1.3826,-1.3826,0,-1.3881,-1.3877,-1.388,-1.3871,-1.387,-1.3871,-1.3867,-1.3866,-1.386,-1.3856,-1.3853,-1.3845,-1.3846,-1.3838,-1.3838,-1.3834,-1.3832,-1.3829,-1.3829,-1.3828,-1.3819,-1.383,-1.3849,-1.3851,-1.3828,-1.3828,-1.3827,0,-1.3897,-1.3893,-1.3894,-1.3891,-1.3882,-1.3882,-1.3878,-1.3872,-1.387,-1.3867,-1.3865,-1.3862,-1.386,-1.3857,-1.3849,-1.3844,-1.3849,-1.3841,-1.3846,-1.3846,-1.3846,-1.3846,-1.3865,-1.3847,-1.3847,-1.3847,-1.3847,0,-1.3911,-1.3913,-1.3901,-1.3901,-1.3903,-1.3893,-1.3895,-1.389,-1.3885,-1.3884,-1.3875,-1.3875,-1.3864,-1.3863,-1.3856,-1.3857,-1.3856,-1.3852,-1.3851,-1.3853,-1.3853,-1.3851,-1.3849,-1.3847,-1.3847,-1.3847,-1.3847,0,-1.3929,-1.3921,-1.3921,-1.3912,-1.391,-1.3911,-1.3903,-1.3903,-1.3898,-1.3897,-1.3896,-1.3887,-1.3884,-1.3876,-1.3872,-1.3868,-1.387,-1.3867,-1.3871,-1.387,-1.3874,-1.3874,-1.3892,-1.3893,-1.3875,-1.3875,-1.3876,0,-1.3938,-1.3939,-1.393,-1.3929,-1.3925,-1.3923,-1.3921,-1.3912,-1.391,-1.3904,-1.3905,-1.3901,-1.3898,-1.3895,-1.3888,-1.3884,-1.388,-1.3887,-1.388,-1.3882,-1.3879,-1.3879,-1.3879,-1.3888,-1.3889,-1.3889,-1.3889,0,-1.3954,-1.395,-1.3947,-1.3943,-1.3941,-1.3937,-1.3933,-1.3933,-1.3923,-1.3921,-1.3918,-1.3916,-1.3911,-1.3908,-1.3903,-1.3899,-1.3892,-1.3891,-1.3892,-1.3894,-1.3896,-1.3894,-1.3874,-1.3891,-1.3891,-1.389,-1.389,-1.389,-1.3967,-1.3967,-1.3961,-1.3958,-1.3954,-1.395,-1.395,-1.3944,-1.3941,-1.3937,-1.3932,-1.3929,-1.3924,-1.3917,-1.3913,-1.3911,-1.3907,-1.3909,-1.3909,-1.3909,-1.391,-1.3897,-1.3911,-1.3911,-1.391,-1.391,-1.391,0,-1.3982,-1.3978,-1.3975,-1.397,-1.3967,-1.3961,-1.3956,-1.3955,-1.3953,-1.3948,-1.3945,-1.3942,-1.3939,-1.3932,-1.3928,-1.3927,-1.3924,-1.3927,-1.3926,-1.3925,-1.3914,-1.3913,-1.3929,-1.3929,-1.3929,-1.3929,-1.3929,-1.3929,-1.399,-1.399,-1.3985,-1.3983,-1.3978,-1.3976,-1.3973,-1.397,-1.3966,-1.3962,-1.396,-1.3955,-1.3949,-1.3945,-1.3942,-1.394,-1.3938,-1.3942,-1.3939,-1.3928,-1.3926,-1.3924,-1.3923,-1.3942,-1.3942,-1.395,-1.395,-1.395]},{"header":{"parameterUnit":"m.s-1","parameterCategory":1,"la1":30.2991,"la2":30.254,"lo1":-89.0895,"lo2":-89.0444,"dy":0.0017,"dx":0.0017,"nx":28,"ny":28,"refTime":"2024-05-08T09:00:00:Z","depth":0,"parameterNumber":3,"parameterNumberName":"V-component_of_WINDS"},"data":[0,0,0,0,0,0,0,0,0,0,0,0,0,0,0,0,0,0,0,0,0,0,0,0,0,0,0,0,0,0,0,0,0,0,0,0,0,0,0,0,0,0,0,0,0,0,0,0,0,0,0,0,0,0,0,0,0,0,3.8988,3.899,0,3.9202,3.9205,3.9207,3.9279,3.9278,3.9277,3.9276,3.9494,3.95,3.9507,0,0,0,0,0,0,0,0,0,0,0,0,0,3.8637,3.8643,3.8987,3.899,3.8993,3.9202,3.9205,3.9208,3.9279,3.9278,3.9277,3.9275,3.9492,3.95,3.9508,0,0,0,0,0,0,0,0,0,0,0,0,0,3.8814,3.8645,3.8987,3.9053,3.9061,3.9201,3.9205,3.9209,3.9279,3.9278,3.9276,3.9275,3.9489,3.9499,3.9509,3.9598,0,0,3.9539,3.9544,0,0,0,0,0,0,0,0,3.8804,3.8827,3.9041,3.9049,3.9058,3.9212,3.9161,3.9339,3.9279,3.9196,3.9276,3.9274,3.9401,3.9418,3.9462,3.9608,3.9617,3.954,3.9546,3.955,3.9553,0,0,0,0,0,0,0,3.8791,3.8818,3.9072,3.9044,3.9055,3.9072,3.9096,3.9195,3.9304,3.9203,3.9209,3.9234,3.9406,3.9452,3.9467,3.962,3.954,3.9549,3.9555,3.9559,3.9851,3.9853,0,0,0,0,0,0,3.8768,3.8807,3.9066,3.9079,3.8925,3.9079,3.9106,3.9164,3.9303,3.9323,3.9235,3.9236,3.9435,3.9456,3.9475,3.959,3.955,3.956,3.9565,3.985,3.9852,3.9854,0,0,0,0,0,0,3.876,3.8791,3.9057,3.8945,3.898,3.9087,3.9152,3.9169,3.9216,3.9327,3.9346,3.9262,3.9435,3.9461,3.9567,3.9598,3.9564,3.9573,3.9847,3.985,3.9853,3.9818,0,0,0,0,0,0,3.875,3.8787,3.8823,3.8945,3.8986,3.9146,3.9154,3.9174,3.9233,3.9237,3.9357,3.9376,3.9436,3.9552,3.9577,3.9611,3.9581,3.9845,3.9849,3.9852,3.9817,3.9819,3.9821,0,0,0,0,0,3.8737,3.8804,3.8824,3.8855,3.9032,3.9147,3.917,3.9239,3.9235,3.9271,3.9343,3.9372,3.959,3.9562,3.9591,3.9629,3.9844,3.9848,3.9852,3.9816,3.9819,3.9821,0,0,0,0,0,0,3.8681,3.8821,3.8845,3.8953,3.9038,3.9159,3.9207,3.9239,3.9327,3.9327,3.9407,3.9434,3.9534,3.9592,3.9558,3.9723,3.9718,3.9728,3.9681,3.9685,3.9687,3.9672,3.9589,0,0,0,0,0,3.8682,3.8764,3.8881,3.8965,3.9007,3.9099,3.9152,3.9197,3.9288,3.9324,3.9403,3.949,3.9578,3.9634,3.9722,3.9825,3.9853,3.9865,3.9867,3.9869,3.9877,3.9937,3.9944,3.9867,3.9867,3.9867,0,0,3.8683,3.877,3.8817,3.8956,3.9027,3.9111,3.9129,3.9216,3.9279,3.9337,3.9443,3.9503,3.9605,3.9711,3.9761,3.9762,3.9904,3.9874,3.9874,3.9882,3.9942,3.9949,3.9955,3.987,3.9869,3.9869,0,0,3.8729,3.8802,3.8881,3.8952,3.9059,3.9121,3.9139,3.9256,3.9299,3.9406,3.9452,3.9527,3.9677,3.9748,3.9804,3.9876,3.9907,3.9902,3.9914,3.9971,3.9978,3.9983,4.0011,4.0019,3.9909,3.9909,3.9909,0,3.8717,3.8845,3.8917,3.9003,3.9063,3.912,3.92,3.9265,3.9395,3.9435,3.9434,3.9625,3.9697,3.9821,3.9838,3.9881,3.9905,3.9889,3.9971,3.9978,3.9984,4.0011,4.0021,3.9908,3.9908,3.9908,3.9909,0,3.8826,3.8914,3.8965,3.909,3.9156,3.9238,3.9322,3.9379,3.9419,3.948,3.9588,3.9677,3.9784,3.9816,3.9855,3.9945,3.9943,3.9955,3.9953,3.9989,4.0016,4.0026,3.9906,3.9907,3.9907,3.9908,0,0,3.8844,3.9008,3.9025,3.9083,3.9206,3.9275,3.936,3.9465,3.9513,3.9601,3.9674,3.98,3.9813,3.9876,3.9923,3.9973,4.0026,3.998,3.9984,3.9987,4.0133,4.0124,4.0134,4.0047,4.0049,4.0051,4.0125,0,3.8907,3.9062,3.9128,3.9253,3.9335,3.939,3.9464,3.9547,3.9606,3.9684,3.9749,3.9838,3.9847,3.9886,3.9938,4.0009,4.0057,4.0004,4.0117,4.012,4.0091,4.0148,4.0139,4.0205,4.0135,4.0137,4.0139,0,3.9001,3.909,3.9223,3.9336,3.9373,3.9439,3.9541,3.9615,3.971,3.9749,3.982,3.9865,3.9955,3.9946,4.0072,4.0035,4.0085,4.0126,4.013,4.0145,4.0132,4.0166,4.0227,4.0237,4.0155,4.0154,4.0153,0,3.9003,3.9155,3.9255,3.9302,3.9437,3.9482,3.9539,3.9633,3.9692,3.9781,3.982,3.9918,3.9972,4.0046,4.0116,4.0102,4.0236,4.0232,4.0272,4.0271,4.0299,4.0297,4.0371,4.0328,4.0328,4.0328,4.0328,0,3.9067,3.9146,3.9258,3.9319,3.9409,3.9485,3.9572,3.9634,3.9717,3.9791,3.9843,3.9912,3.9999,4.0079,4.0134,4.0231,4.0254,4.0289,4.0303,4.0286,4.0281,4.032,4.0318,4.0331,4.033,4.0329,4.0329,0,3.9085,3.9162,3.9275,3.9393,3.9424,3.9486,3.9587,3.9648,3.9709,3.9803,3.9829,3.9925,4.0021,4.0098,4.0223,4.026,4.0363,4.0378,4.0331,4.0339,4.0375,4.0371,4.0478,4.0497,4.0439,4.044,4.044,0,3.9121,3.9184,3.9309,3.9363,3.942,3.9506,3.9567,3.9643,3.9704,3.9817,3.9865,3.9965,4.005,4.0201,4.0282,4.0378,4.0396,4.0427,4.0411,4.0392,4.0399,4.0395,4.0402,4.0429,4.043,4.043,4.043,0,3.9179,3.9214,3.93,3.94,3.9471,3.9553,3.9636,3.9677,3.9768,3.9834,3.9933,3.9999,4.0127,4.0226,4.0331,4.039,4.0426,4.0434,4.0449,4.0432,4.0404,4.0421,4.0338,4.0432,4.0432,4.0431,4.0431,4.0431,3.9209,3.9267,3.9365,3.9459,3.9529,3.9606,3.967,3.9739,3.9824,3.9935,3.9974,4.0076,4.017,4.0315,4.0375,4.0456,4.0459,4.0479,4.0485,4.0489,4.0488,4.0389,4.0475,4.0475,4.0475,4.0475,4.0475,0,3.9271,3.9336,3.9422,3.9537,3.9611,3.9637,3.973,3.9791,3.988,3.9965,4.0047,4.0161,4.0258,4.0346,4.0446,4.0494,4.0513,4.0518,4.0516,4.053,4.0479,4.0457,4.0501,4.0501,4.0501,4.0501,4.0501,4.0501,3.9311,3.9412,3.9459,3.9595,3.966,3.9762,3.9813,3.9883,3.9952,4.0077,4.0158,4.0215,4.0301,4.0408,4.0498,4.0521,4.0556,4.0558,4.0585,4.0537,4.0533,4.053,4.051,4.0564,4.0564,4.063,4.063,4.0631]}]]